CCA1 LPPR-GCLP

Flight info

Callsign CCA1
Flight time 2h 4m
Altitude 39000
Route ASMOV DCT BEXAL DCT SAMAR
Aircraft B77W/H-SDE1E2E3FGHIJ2J3J4J5M1RWXY/LB1D1

Departure

Time 2026-05-03 23:07
Airport Francisco de Sá Carneiro Airport (LPPR)

Arrival

Time 2026-05-04 01:11
Airport Gran Canaria Airport (GCLP)
Time Latitude Longitude Altitude Speed Heading
2026-05-03 22:32 41.23371 -8.67169 242 ft 0 kts 79°
2026-05-03 22:59 41.23379 -8.67110 242 ft 2 kts 259°
2026-05-03 23:00 41.23374 -8.67144 242 ft 4 kts 258°
2026-05-03 23:00 41.23370 -8.67173 242 ft 0 kts 258°
2026-05-03 23:04 41.23360 -8.67233 242 ft 18 kts 258°
2026-05-03 23:05 41.23333 -8.67407 242 ft 19 kts 258°
2026-05-03 23:05 41.23306 -8.67583 242 ft 19 kts 258°
2026-05-03 23:05 41.23292 -8.67684 243 ft 7 kts 267°
2026-05-03 23:05 41.23327 -8.67731 244 ft 8 kts 334°
2026-05-03 23:06 41.23368 -8.67747 243 ft 0 kts 347°
2026-05-03 23:06 41.23394 -8.67754 242 ft 18 kts 348°
2026-05-03 23:06 41.23809 -8.67867 228 ft 122 kts 349°
2026-05-03 23:07 41.25008 -8.68179 681 ft 203 kts 349°
2026-05-03 23:07 41.26432 -8.68601 2390 ft 219 kts 335°
2026-05-03 23:07 41.27583 -8.69994 3256 ft 236 kts 295°
2026-05-03 23:07 41.27861 -8.72071 4444 ft 226 kts 261°
2026-05-03 23:08 41.27233 -8.73969 5482 ft 229 kts 231°
2026-05-03 23:08 41.26226 -8.75549 6713 ft 219 kts 230°
2026-05-03 23:08 41.25209 -8.77041 7730 ft 222 kts 221°
2026-05-03 23:08 41.23776 -8.78146 8034 ft 256 kts 206°
2026-05-03 23:09 41.22083 -8.79115 8819 ft 269 kts 204°
2026-05-03 23:09 41.20353 -8.80059 9662 ft 276 kts 204°
2026-05-03 23:09 41.18486 -8.81066 10397 ft 299 kts 203°
2026-05-03 23:09 41.16471 -8.82150 10914 ft 330 kts 203°
2026-05-03 23:10 41.14240 -8.83354 11289 ft 358 kts 204°
2026-05-03 23:10 41.11901 -8.84617 12238 ft 367 kts 204°
2026-05-03 23:10 41.09519 -8.85904 13356 ft 372 kts 204°
2026-05-03 23:10 41.07104 -8.87212 14465 ft 376 kts 204°
2026-05-03 23:11 41.04669 -8.88534 15543 ft 379 kts 205°
2026-05-03 23:11 41.02217 -8.89866 16610 ft 383 kts 205°
2026-05-03 23:11 40.99736 -8.91215 17653 ft 388 kts 205°
2026-05-03 23:11 40.97223 -8.92582 18617 ft 393 kts 205°
2026-05-03 23:12 40.94682 -8.93964 19504 ft 397 kts 205°
2026-05-03 23:12 40.92112 -8.95360 20387 ft 401 kts 205°
2026-05-03 23:12 40.89519 -8.96767 21267 ft 405 kts 205°
2026-05-03 23:12 40.86897 -8.98189 22105 ft 410 kts 205°
2026-05-03 23:13 40.84249 -8.99625 22932 ft 414 kts 205°
2026-05-03 23:13 40.81563 -9.01079 23731 ft 419 kts 205°
2026-05-03 23:13 40.78856 -9.02543 24429 ft 422 kts 206°
2026-05-03 23:13 40.76129 -9.04016 25163 ft 424 kts 206°
2026-05-03 23:14 40.73397 -9.05490 25874 ft 426 kts 206°
2026-05-03 23:14 40.70647 -9.06973 26559 ft 428 kts 206°
2026-05-03 23:14 40.67877 -9.08466 27199 ft 431 kts 206°
2026-05-03 23:14 40.65093 -9.09966 27832 ft 434 kts 206°
2026-05-03 23:15 40.62286 -9.11476 28431 ft 437 kts 206°
2026-05-03 23:15 40.59466 -9.12992 29001 ft 439 kts 206°
2026-05-03 23:15 40.56628 -9.14516 29537 ft 442 kts 207°
2026-05-03 23:15 40.53814 -9.16026 30036 ft 444 kts 207°
2026-05-03 23:16 40.50950 -9.17560 30502 ft 445 kts 207°
2026-05-03 23:16 40.48084 -9.19094 30982 ft 445 kts 207°
2026-05-03 23:16 40.45222 -9.20623 31470 ft 444 kts 207°
2026-05-03 23:16 40.42359 -9.22152 31959 ft 444 kts 207°
2026-05-03 23:17 40.39498 -9.23679 32426 ft 444 kts 207°
2026-05-03 23:17 40.36633 -9.25208 32901 ft 444 kts 207°
2026-05-03 23:17 40.33776 -9.26730 33376 ft 443 kts 207°
2026-05-03 23:17 40.30917 -9.28253 33829 ft 443 kts 207°
2026-05-03 23:18 40.28058 -9.29774 34239 ft 443 kts 207°
2026-05-03 23:18 40.25198 -9.31295 34560 ft 444 kts 207°
2026-05-03 23:18 40.22327 -9.32820 34872 ft 446 kts 207°
2026-05-03 23:18 40.19447 -9.34349 35192 ft 446 kts 207°
2026-05-03 23:19 40.16563 -9.35878 35506 ft 447 kts 207°
2026-05-03 23:19 40.13677 -9.37407 35827 ft 448 kts 207°
2026-05-03 23:19 40.10786 -9.38937 36147 ft 449 kts 207°
2026-05-03 23:19 40.07885 -9.40470 36444 ft 450 kts 207°
2026-05-03 23:20 40.04982 -9.42003 36735 ft 450 kts 206°
2026-05-03 23:20 40.02116 -9.43515 37037 ft 451 kts 206°
2026-05-03 23:20 39.99209 -9.45048 37321 ft 451 kts 206°
2026-05-03 23:20 39.96294 -9.46583 37617 ft 452 kts 206°
2026-05-03 23:21 39.93369 -9.48122 37906 ft 452 kts 206°
2026-05-03 23:21 39.90446 -9.49659 38192 ft 453 kts 206°
2026-05-03 23:21 39.87523 -9.51194 38464 ft 453 kts 206°
2026-05-03 23:21 39.84594 -9.52731 38736 ft 454 kts 206°
2026-05-03 23:22 39.78714 -9.55814 39003 ft 458 kts 206°
2026-05-03 23:22 39.72820 -9.58897 39075 ft 458 kts 206°
2026-05-03 23:23 39.66931 -9.61968 39080 ft 454 kts 206°
2026-05-03 23:23 39.61025 -9.65048 39090 ft 461 kts 206°
2026-05-03 23:24 39.55022 -9.68174 39086 ft 466 kts 206°
2026-05-03 23:24 39.48989 -9.71306 39099 ft 468 kts 206°
2026-05-03 23:25 39.42936 -9.74440 39096 ft 468 kts 206°
2026-05-03 23:25 39.36893 -9.77564 39093 ft 467 kts 206°
2026-05-03 23:26 39.30902 -9.80656 39093 ft 465 kts 206°
2026-05-03 23:26 39.24902 -9.83747 39089 ft 463 kts 206°
2026-05-03 23:27 39.18929 -9.86820 39093 ft 461 kts 206°
2026-05-03 23:27 39.12971 -9.89879 39094 ft 460 kts 206°
2026-05-03 23:28 39.07037 -9.92921 39099 ft 459 kts 206°
2026-05-03 23:28 39.01104 -9.95957 39101 ft 459 kts 206°
2026-05-03 23:29 38.95173 -9.98986 39096 ft 459 kts 206°
2026-05-03 23:29 38.89238 -10.02012 39100 ft 459 kts 206°
2026-05-03 23:30 38.83292 -10.05037 39100 ft 459 kts 206°
2026-05-03 23:30 38.77388 -10.08036 39103 ft 460 kts 206°
2026-05-03 23:31 38.71422 -10.11061 39101 ft 460 kts 206°
2026-05-03 23:31 38.65473 -10.14071 39108 ft 460 kts 207°
2026-05-03 23:32 38.59515 -10.17081 39101 ft 460 kts 207°
2026-05-03 23:32 38.53559 -10.20084 39106 ft 460 kts 207°
2026-05-03 23:33 38.47640 -10.23064 39106 ft 460 kts 207°
2026-05-03 23:33 38.41690 -10.26054 39109 ft 459 kts 207°
2026-05-03 23:34 38.35740 -10.29038 39108 ft 459 kts 207°
2026-05-03 23:34 38.29799 -10.32013 39108 ft 459 kts 207°
2026-05-03 23:35 38.23851 -10.34986 39112 ft 458 kts 207°
2026-05-03 23:35 38.17914 -10.37948 39154 ft 459 kts 207°
2026-05-03 23:36 38.11967 -10.40910 39120 ft 459 kts 207°
2026-05-03 23:36 38.06058 -10.43848 39111 ft 458 kts 207°
2026-05-03 23:37 38.00133 -10.46788 39111 ft 457 kts 207°
2026-05-03 23:37 37.94207 -10.49724 39114 ft 456 kts 207°
2026-05-03 23:38 37.88306 -10.52643 39114 ft 455 kts 207°
2026-05-03 23:38 37.83407 -10.55063 39115 ft 455 kts 207°
2026-05-03 23:39 37.77514 -10.57968 39114 ft 454 kts 207°
2026-05-03 23:39 37.71625 -10.60867 39117 ft 453 kts 208°
2026-05-03 23:40 37.65746 -10.63756 39121 ft 453 kts 208°
2026-05-03 23:40 37.59868 -10.66640 39118 ft 453 kts 208°
2026-05-03 23:41 37.53995 -10.69516 39117 ft 452 kts 208°
2026-05-03 23:41 37.48133 -10.72381 39119 ft 452 kts 208°
2026-05-03 23:42 37.42307 -10.75225 39118 ft 451 kts 208°
2026-05-03 23:42 37.36457 -10.78075 39115 ft 450 kts 208°
2026-05-03 23:43 37.30610 -10.80919 39114 ft 450 kts 208°
2026-05-03 23:43 37.24762 -10.83759 39132 ft 449 kts 208°
2026-05-03 23:44 37.18929 -10.86587 39127 ft 449 kts 208°
2026-05-03 23:44 37.13140 -10.89389 39121 ft 448 kts 208°
2026-05-03 23:45 37.07287 -10.92217 39119 ft 448 kts 208°
2026-05-03 23:45 37.01508 -10.95005 39124 ft 447 kts 208°
2026-05-03 23:46 36.95702 -10.97801 39127 ft 446 kts 208°
2026-05-03 23:46 36.89902 -11.00591 39126 ft 446 kts 208°
2026-05-03 23:47 36.84113 -11.03370 39130 ft 445 kts 208°
2026-05-03 23:47 36.78334 -11.06140 39128 ft 445 kts 208°
2026-05-03 23:48 36.72559 -11.08903 39130 ft 444 kts 208°
2026-05-03 23:48 36.66786 -11.11661 39130 ft 444 kts 208°
2026-05-03 23:49 36.61049 -11.14397 39129 ft 444 kts 208°
2026-05-03 23:49 36.55286 -11.17142 39127 ft 443 kts 208°
2026-05-03 23:50 36.49519 -11.19884 39128 ft 443 kts 208°
2026-05-03 23:50 36.43760 -11.22618 39130 ft 443 kts 208°
2026-05-03 23:51 36.38002 -11.25347 39141 ft 443 kts 208°
2026-05-03 23:51 36.32246 -11.28071 39131 ft 443 kts 208°
2026-05-03 23:52 36.26484 -11.30793 39127 ft 443 kts 208°
2026-05-03 23:52 36.20754 -11.33496 39131 ft 443 kts 207°
2026-05-03 23:53 36.14986 -11.36213 39129 ft 443 kts 207°
2026-05-03 23:53 36.09225 -11.38922 39130 ft 443 kts 207°
2026-05-03 23:54 36.03458 -11.41631 39132 ft 443 kts 207°
2026-05-03 23:54 35.97690 -11.44341 39131 ft 443 kts 208°
2026-05-03 23:55 35.92160 -11.47573 39139 ft 438 kts 213°
2026-05-03 23:55 35.86751 -11.50985 39136 ft 439 kts 213°
2026-05-03 23:56 35.81300 -11.54410 39140 ft 440 kts 213°
2026-05-03 23:56 35.75834 -11.57823 39137 ft 441 kts 213°
2026-05-03 23:57 35.70349 -11.61237 39141 ft 441 kts 213°
2026-05-03 23:57 35.64865 -11.64642 39142 ft 441 kts 213°
2026-05-03 23:58 35.59381 -11.68043 39144 ft 442 kts 212°
2026-05-03 23:58 35.53927 -11.71420 39138 ft 442 kts 212°
2026-05-03 23:59 35.48432 -11.74818 39141 ft 442 kts 212°
2026-05-03 23:59 35.42927 -11.78216 39138 ft 442 kts 212°
2026-05-04 00:00 35.37428 -11.81606 39141 ft 442 kts 212°
2026-05-04 00:00 35.31921 -11.84995 39142 ft 443 kts 212°
2026-05-04 00:01 35.26412 -11.88381 39137 ft 443 kts 212°
2026-05-04 00:01 35.20898 -11.91764 39138 ft 443 kts 212°
2026-05-04 00:02 35.15379 -11.95145 39141 ft 444 kts 212°
2026-05-04 00:02 35.09885 -11.98506 39139 ft 444 kts 212°
2026-05-04 00:03 35.04343 -12.01891 39147 ft 445 kts 212°
2026-05-04 00:03 34.98793 -12.05276 39147 ft 446 kts 212°
2026-05-04 00:04 34.93239 -12.08658 39144 ft 446 kts 212°
2026-05-04 00:04 34.87712 -12.12018 39147 ft 447 kts 212°
2026-05-04 00:05 34.82140 -12.15401 39148 ft 447 kts 212°
2026-05-04 00:05 34.76568 -12.18778 39146 ft 447 kts 212°
2026-05-04 00:06 34.70992 -12.22152 39146 ft 448 kts 212°
2026-05-04 00:06 34.65406 -12.25528 39149 ft 448 kts 212°
2026-05-04 00:07 34.59822 -12.28897 39149 ft 448 kts 211°
2026-05-04 00:07 34.54272 -12.32241 39147 ft 448 kts 211°
2026-05-04 00:08 34.48696 -12.35596 39150 ft 447 kts 211°
2026-05-04 00:08 34.43121 -12.38944 39153 ft 447 kts 211°
2026-05-04 00:09 34.37546 -12.42288 39147 ft 447 kts 211°
2026-05-04 00:09 34.31974 -12.45625 39142 ft 446 kts 211°
2026-05-04 00:10 34.26411 -12.48951 39142 ft 445 kts 211°
2026-05-04 00:10 34.20861 -12.52265 39143 ft 445 kts 211°
2026-05-04 00:11 34.15311 -12.55574 39145 ft 444 kts 211°
2026-05-04 00:11 34.09809 -12.58850 39144 ft 444 kts 211°
2026-05-04 00:12 34.04271 -12.62143 39155 ft 444 kts 211°
2026-05-04 00:12 33.98733 -12.65430 39153 ft 443 kts 211°
2026-05-04 00:13 33.93198 -12.68711 39150 ft 443 kts 211°
2026-05-04 00:13 33.87658 -12.71990 39147 ft 443 kts 211°
2026-05-04 00:14 33.82129 -12.75258 39148 ft 442 kts 211°
2026-05-04 00:14 33.76595 -12.78524 39147 ft 442 kts 211°
2026-05-04 00:15 33.71102 -12.81761 39145 ft 442 kts 211°
2026-05-04 00:15 33.65583 -12.85009 39144 ft 442 kts 211°
2026-05-04 00:16 33.60059 -12.88254 39146 ft 442 kts 211°
2026-05-04 00:16 33.54536 -12.91495 39146 ft 441 kts 211°
2026-05-04 00:17 33.49011 -12.94733 39146 ft 441 kts 211°
2026-05-04 00:17 33.43524 -12.97943 39149 ft 441 kts 211°
2026-05-04 00:18 33.37998 -13.01172 39148 ft 441 kts 211°
2026-05-04 00:18 33.32474 -13.04395 39146 ft 441 kts 211°
2026-05-04 00:19 33.26955 -13.07611 39150 ft 441 kts 211°
2026-05-04 00:19 33.21431 -13.10825 39140 ft 441 kts 211°
2026-05-04 00:20 33.15938 -13.14016 39141 ft 442 kts 211°
2026-05-04 00:20 33.10406 -13.17225 39142 ft 442 kts 211°
2026-05-04 00:21 33.04871 -13.20433 39144 ft 442 kts 211°
2026-05-04 00:21 32.99329 -13.23639 39147 ft 443 kts 211°
2026-05-04 00:22 32.93785 -13.26842 39144 ft 443 kts 211°
2026-05-04 00:22 32.88233 -13.30045 39147 ft 444 kts 211°
2026-05-04 00:23 32.82675 -13.33247 39154 ft 444 kts 211°
2026-05-04 00:23 32.77111 -13.36448 39150 ft 444 kts 211°
2026-05-04 00:24 32.72479 -13.39109 39147 ft 444 kts 211°
2026-05-04 00:24 32.66912 -13.42304 39145 ft 444 kts 211°
2026-05-04 00:25 32.61334 -13.45500 39143 ft 444 kts 211°
2026-05-04 00:25 32.55765 -13.48687 39146 ft 444 kts 211°
2026-05-04 00:26 32.50201 -13.51866 39141 ft 444 kts 211°
2026-05-04 00:26 32.44676 -13.55019 39144 ft 444 kts 211°
2026-05-04 00:27 32.39111 -13.58191 39141 ft 443 kts 211°
2026-05-04 00:27 32.33549 -13.61356 39142 ft 443 kts 211°
2026-05-04 00:28 32.27988 -13.64517 39145 ft 443 kts 211°
2026-05-04 00:28 32.22424 -13.67674 39144 ft 443 kts 211°
2026-05-04 00:29 32.16854 -13.70831 39141 ft 443 kts 211°
2026-05-04 00:29 32.11291 -13.73980 39147 ft 444 kts 211°
2026-05-04 00:30 32.05723 -13.77127 39153 ft 444 kts 211°
2026-05-04 00:30 32.00186 -13.80252 39135 ft 444 kts 211°
2026-05-04 00:31 31.94618 -13.83391 39141 ft 444 kts 211°
2026-05-04 00:31 31.89046 -13.86528 39145 ft 444 kts 211°
2026-05-04 00:32 31.83467 -13.89664 39141 ft 444 kts 211°
2026-05-04 00:32 31.77892 -13.92794 39143 ft 444 kts 211°
2026-05-04 00:33 31.69559 -13.97465 39147 ft 444 kts 211°
2026-05-04 00:34 31.63990 -14.00581 39146 ft 443 kts 211°
2026-05-04 00:34 31.58415 -14.03696 39143 ft 443 kts 211°
2026-05-04 00:35 31.52839 -14.06808 39143 ft 443 kts 211°
2026-05-04 00:35 31.47267 -14.09913 39143 ft 443 kts 211°
2026-05-04 00:36 31.41696 -14.13014 39139 ft 443 kts 211°
2026-05-04 00:36 31.36164 -14.16089 39140 ft 442 kts 211°
2026-05-04 00:37 31.30603 -14.19177 39144 ft 442 kts 211°
2026-05-04 00:37 31.25040 -14.22261 39147 ft 442 kts 211°
2026-05-04 00:38 31.19478 -14.25340 39144 ft 442 kts 211°
2026-05-04 00:38 31.13926 -14.28411 39145 ft 441 kts 211°
2026-05-04 00:39 31.08376 -14.31476 39155 ft 441 kts 211°
2026-05-04 00:39 31.02867 -14.34515 39133 ft 441 kts 211°
2026-05-04 00:40 30.97310 -14.37577 39136 ft 441 kts 211°
2026-05-04 00:40 30.91761 -14.40630 39142 ft 441 kts 211°
2026-05-04 00:41 30.86055 -14.43335 39150 ft 446 kts 205°
2026-05-04 00:41 30.80089 -14.45449 39143 ft 448 kts 203°
2026-05-04 00:42 30.74146 -14.47503 39145 ft 447 kts 204°
2026-05-04 00:42 30.68202 -14.49633 39142 ft 447 kts 204°
2026-05-04 00:43 30.62268 -14.51806 39140 ft 446 kts 204°
2026-05-04 00:43 30.56347 -14.53984 39140 ft 446 kts 204°
2026-05-04 00:44 30.50423 -14.56159 39140 ft 446 kts 204°
2026-05-04 00:44 30.44505 -14.58328 39144 ft 446 kts 204°
2026-05-04 00:45 30.38583 -14.60494 39140 ft 446 kts 204°
2026-05-04 00:45 30.32698 -14.62643 39137 ft 446 kts 204°
2026-05-04 00:46 30.26777 -14.64803 39139 ft 446 kts 204°
2026-05-04 00:46 30.20862 -14.66958 39137 ft 446 kts 204°
2026-05-04 00:47 30.14944 -14.69112 39138 ft 446 kts 204°
2026-05-04 00:47 30.09022 -14.71264 39139 ft 445 kts 204°
2026-05-04 00:48 30.03108 -14.73411 39138 ft 445 kts 204°
2026-05-04 00:48 29.97228 -14.75543 39137 ft 445 kts 204°
2026-05-04 00:49 29.91317 -14.77683 39134 ft 445 kts 204°
2026-05-04 00:49 29.85406 -14.79821 39136 ft 445 kts 204°
2026-05-04 00:50 29.79486 -14.81959 39130 ft 445 kts 204°
2026-05-04 00:50 29.73585 -14.84083 38918 ft 441 kts 204°
2026-05-04 00:50 29.70670 -14.85130 38299 ft 437 kts 204°
2026-05-04 00:51 29.67778 -14.86170 37606 ft 434 kts 204°
2026-05-04 00:51 29.64903 -14.87205 36982 ft 432 kts 204°
2026-05-04 00:51 29.62045 -14.88233 36374 ft 429 kts 204°
2026-05-04 00:51 29.59205 -14.89255 35825 ft 426 kts 204°
2026-05-04 00:52 29.56390 -14.90266 35309 ft 423 kts 204°
2026-05-04 00:52 29.53588 -14.91273 34803 ft 420 kts 203°
2026-05-04 00:52 29.50847 -14.92257 34313 ft 417 kts 203°
2026-05-04 00:52 29.48082 -14.93249 33768 ft 414 kts 203°
2026-05-04 00:53 29.45344 -14.94231 33255 ft 410 kts 203°
2026-05-04 00:53 29.42605 -14.95214 32245 ft 417 kts 203°
2026-05-04 00:53 29.39780 -14.96235 30842 ft 433 kts 202°
2026-05-04 00:53 29.36862 -14.97287 29703 ft 442 kts 202°
2026-05-04 00:54 29.33917 -14.98340 28715 ft 443 kts 202°
2026-05-04 00:54 29.30966 -14.99392 27829 ft 443 kts 202°
2026-05-04 00:54 29.28033 -15.00435 27056 ft 441 kts 202°
2026-05-04 00:54 29.25113 -15.01473 26379 ft 436 kts 202°
2026-05-04 00:55 29.22226 -15.02500 25722 ft 432 kts 202°
2026-05-04 00:55 29.19402 -15.03506 25067 ft 429 kts 201°
2026-05-04 00:55 29.16556 -15.04520 24412 ft 427 kts 201°
2026-05-04 00:55 29.13729 -15.05527 23774 ft 424 kts 201°
2026-05-04 00:56 29.10923 -15.06527 23054 ft 421 kts 201°
2026-05-04 00:56 29.08132 -15.07520 22395 ft 417 kts 201°
2026-05-04 00:56 29.05409 -15.08485 21553 ft 398 kts 201°
2026-05-04 00:56 29.02801 -15.09408 20108 ft 389 kts 201°
2026-05-04 00:57 29.00227 -15.10323 18620 ft 385 kts 201°
2026-05-04 00:57 28.97644 -15.11244 17824 ft 388 kts 201°
2026-05-04 00:57 28.95073 -15.12159 17180 ft 385 kts 201°
2026-05-04 00:57 28.92523 -15.13064 16572 ft 383 kts 201°
2026-05-04 00:58 28.89987 -15.13964 15976 ft 380 kts 201°
2026-05-04 00:58 28.87467 -15.14858 15386 ft 378 kts 201°
2026-05-04 00:58 28.84957 -15.15747 14792 ft 376 kts 201°
2026-05-04 00:58 28.82497 -15.16618 14213 ft 375 kts 200°
2026-05-04 00:59 28.80006 -15.17500 13577 ft 374 kts 200°
2026-05-04 00:59 28.77524 -15.18378 12950 ft 372 kts 200°
2026-05-04 00:59 28.75056 -15.19250 12356 ft 370 kts 200°
2026-05-04 00:59 28.72602 -15.20118 11758 ft 368 kts 200°
2026-05-04 01:00 28.70160 -15.20981 11166 ft 366 kts 200°
2026-05-04 01:00 28.67751 -15.21830 10914 ft 356 kts 200°
2026-05-04 01:00 28.65423 -15.22649 10742 ft 343 kts 200°
2026-05-04 01:00 28.63180 -15.23432 10583 ft 332 kts 199°
2026-05-04 01:01 28.60951 -15.23956 10436 ft 323 kts 191°
2026-05-04 01:01 28.58759 -15.24250 10305 ft 312 kts 189°
2026-05-04 01:01 28.56654 -15.24506 10171 ft 303 kts 189°
2026-05-04 01:01 28.54592 -15.24758 10039 ft 293 kts 189°
2026-05-04 01:02 28.52580 -15.25011 9740 ft 291 kts 189°
2026-05-04 01:02 28.50576 -15.25271 9414 ft 289 kts 189°
2026-05-04 01:02 28.48581 -15.25534 9077 ft 288 kts 189°
2026-05-04 01:02 28.46591 -15.25799 8744 ft 287 kts 189°
2026-05-04 01:03 28.44611 -15.26064 8402 ft 286 kts 189°
2026-05-04 01:03 28.42630 -15.26330 8068 ft 286 kts 189°
2026-05-04 01:03 28.40654 -15.26596 7728 ft 286 kts 189°
2026-05-04 01:03 28.38682 -15.26861 7396 ft 285 kts 189°
2026-05-04 01:04 28.36712 -15.27127 7059 ft 285 kts 189°
2026-05-04 01:04 28.34744 -15.27392 6729 ft 285 kts 188°
2026-05-04 01:04 28.32772 -15.27658 6396 ft 285 kts 189°
2026-05-04 01:04 28.30797 -15.27924 6032 ft 286 kts 188°
2026-05-04 01:05 28.28820 -15.28191 5683 ft 286 kts 188°
2026-05-04 01:05 28.26844 -15.28457 5347 ft 286 kts 188°
2026-05-04 01:05 28.24872 -15.28722 5016 ft 285 kts 187°
2026-05-04 01:05 28.22925 -15.28984 4676 ft 286 kts 187°
2026-05-04 01:06 28.20952 -15.29249 4347 ft 285 kts 187°
2026-05-04 01:06 28.18995 -15.29512 4030 ft 284 kts 187°
2026-05-04 01:06 28.17038 -15.29775 3731 ft 282 kts 187°
2026-05-04 01:06 28.15104 -15.30034 3540 ft 276 kts 187°
2026-05-04 01:07 28.13225 -15.30287 3397 ft 268 kts 187°
2026-05-04 01:07 28.11420 -15.30603 3262 ft 256 kts 195°
2026-05-04 01:07 28.09771 -15.31247 3134 ft 246 kts 202°
2026-05-04 01:07 28.08196 -15.31982 2886 ft 243 kts 202°
2026-05-04 01:08 28.06628 -15.32693 2608 ft 241 kts 202°
2026-05-04 01:08 28.05111 -15.33367 2268 ft 223 kts 202°
2026-05-04 01:08 28.03759 -15.33967 1987 ft 197 kts 202°
2026-05-04 01:08 28.02553 -15.34504 1709 ft 175 kts 202°
2026-05-04 01:09 28.01450 -15.34994 1460 ft 171 kts 202°
2026-05-04 01:09 28.00355 -15.35485 1296 ft 172 kts 202°
2026-05-04 01:09 27.99244 -15.35980 1075 ft 172 kts 202°
2026-05-04 01:09 27.98131 -15.36476 832 ft 172 kts 202°
2026-05-04 01:10 27.97019 -15.36962 585 ft 169 kts 202°
2026-05-04 01:10 27.95929 -15.37442 401 ft 167 kts 202°
2026-05-04 01:10 27.94838 -15.37923 160 ft 170 kts 204°
2026-05-04 01:10 27.93762 -15.38400 60 ft 155 kts 202°
2026-05-04 01:11 27.92902 -15.38783 61 ft 112 kts 202°
2026-05-04 01:11 27.92319 -15.39040 87 ft 68 kts 201°
2026-05-04 01:11 27.91972 -15.39199 93 ft 28 kts 207°
2026-05-04 01:11 27.91901 -15.39348 97 ft 23 kts 285°
2026-05-04 01:12 27.91985 -15.39407 101 ft 23 kts
2026-05-04 01:12 27.92126 -15.39326 104 ft 23 kts 26°
2026-05-04 01:12 27.92276 -15.39263 106 ft 23 kts 22°
2026-05-04 01:12 27.92425 -15.39196 101 ft 23 kts 21°
2026-05-04 01:13 27.92576 -15.39131 98 ft 24 kts 20°
2026-05-04 01:13 27.92739 -15.39063 96 ft 27 kts 21°
2026-05-04 01:13 27.92916 -15.39043 91 ft 27 kts 349°
2026-05-04 01:13 27.93100 -15.39047 89 ft 27 kts 13°
2026-05-04 01:14 27.93274 -15.38973 91 ft 27 kts 21°
2026-05-04 01:14 27.93396 -15.38916 89 ft 7 kts 21°
2026-05-04 01:14 27.93441 -15.38897 92 ft 7 kts 21°
2026-05-04 01:14 27.93486 -15.38893 93 ft 7 kts 328°
2026-05-04 01:15 27.93508 -15.38943 94 ft 7 kts 291°
2026-05-04 01:15 27.93512 -15.38953 93 ft 0 kts 292°